Theta_e
283 285 288 291 294 299 300 299 299 309 315 316 314 312 311 310 308 307 305 304 304 303 303 303 303 306 305 303 304 304 304 305 301 295 297 296 298 300 300 299 300 300 300
281 283 287 291 293 297 302 300 299 313 314 314 312 310 308 307 306 305 303 302 301 301 301 302 303 304 304 301 301 303 302 302 300 294 292 293 296 298 299 299 299 299 298
280 282 289 291 294 297 302 301 307 312 312 310 309 307 305 305 304 303 302 301 301 300 300 301 301 302 300 300 300 300 300 300 301 298 293 293 293 295 297 297 298 297 297
280 287 292 294 295 299 304 301 311 311 309 308 306 305 304 304 304 305 306 305 303 302 303 302 303 301 300 301 302 301 300 301 302 299 295 294 293 293 295 295 294 296 296
281 285 292 296 298 299 300 306 308 307 306 305 306 305 311 304 303 303 302 302 300 300 301 302 302 304 301 301 303 302 300 299 298 297 294 293 291 291 293 294 294 294 295
280 283 290 291 294 295 295 296 301 301 302 304 304 307 304 303 302 302 304 304 302 301 301 302 301 302 302 303 304 305 304 300 299 298 295 294 293 293 294 294 294 293 293
279 281 285 289 291 291 292 293 292 294 297 299 302 303 302 301 303 304 305 304 302 301 300 300 300 302 303 303 304 305 305 305 305 303 298 297 296 296 294 293 294 294 295
278 279 281 285 286 289 291 291 292 291 291 292 294 297 298 298 302 303 305 305 303 302 301 300 300 301 302 302 302 303 303 304 305 305 304 301 299 298 297 296 294 294 293
277 278 279 281 283 285 285 287 289 290 289 289 290 292 293 295 296 298 300 300 300 300 299 300 300 301 301 301 302 301 300 302 303 302 299 298 298 299 297 296 294 292 289
275 277 278 280 281 282 283 284 286 287 286 287 287 290 291 292 294 296 298 297 295 296 296 296 299 299 299 300 298 297 296 296 297 298 298 297 297 298 298 296 296 293 291
275 276 277 279 281 282 283 283 284 285 286 286 286 286 288 290 292 293 295 295 295 295 295 296 297 297 297 298 298 298 298 297 296 296 295 295 296 296 296 295 295 295 293
274 275 276 277 280 282 283 283 284 284 285 286 286 285 286 287 289 290 292 292 294 294 292 293 294 295 295 294 295 296 296 297 296 295 293 292 292 292 291 291 291 292 292
273 274 274 276 278 280 282 283 283 283 284 284 285 285 285 285 286 287 288 290 291 291 292 292 293 293 293 293 293 294 295 296 294 292 292 292 291 290 290 290 290 290 291
272 272 274 274 276 278 280 281 282 283 283 283 283 284 283 283 284 285 286 287 288 289 290 291 292 292 292 292 292 292 293 293 293 291 291 291 291 290 289 290 289 289 288
272 272 272 273 274 276 278 279 280 281 282 282 282 282 282 283 283 283 285 285 285 285 287 288 289 290 290 291 291 291 291 291 291 291 290 289 288 288 287 288 288 287 284
272 272 271 272 273 274 275 278 278 278 279 280 281 281 281 282 284 283 284 285 285 285 286 287 287 288 289 289 290 290 290 290 290 290 289 288 286 286 285 285 286 285 283
270 271 271 271 272 272 273 274 275 277 277 277 278 278 280 281 282 283 284 285 285 286 286 286 287 287 288 288 288 289 288 289 289 289 288 287 286 285 285 285 285 284 283
271 271 270 270 270 271 271 272 273 274 275 275 276 277 278 279 281 282 283 284 285 285 285 285 285 286 286 286 287 287 287 287 287 287 287 286 286 285 285 285 285 284 282
270 270 270 270 270 270 271 272 272 273 274 274 275 276 277 279 280 281 281 282 283 284 284 284 284 284 285 285 286 286 286 286 286 286 286 286 286 286 285 285 284 282 281
269 269 269 269 270 270 270 271 271 271 273 273 273 273 275 276 278 277 279 280 281 282 283 284 284 284 284 284 284 285 285 285 285 285 285 285 285 285 284 283 282 281 280
269 268 269 269 269 268 268 269 269 270 270 271 271 272 273 273 274 275 276 277 277 279 280 282 283 283 283 283 284 284 284 284 284 284 284 285 285 284 283 282 281 281 280
268 268 268 268 268 268 268 268 268 268 269 269 270 270 271 272 273 274 274 275 277 277 278 280 281 282 282 282 282 283 284 284 284 283 284 284 283 283 282 281 280 280 278
267 267 267 267 267 268 267 268 268 268 268 268 268 269 270 271 272 272 274 275 277 278 278 279 279 280 281 282 282 282 282 283 283 283 283 282 282 281 281 280 280 277 276
267 267 267 267 267 267 267 267 267 267 268 268 268 269 269 269 270 271 273 274 276 277 278 278 279 279 280 280 281 281 282 282 282 283 283 282 281 280 280 280 278 277 275
266 266 266 266 266 267 267 267 267 267 267 267 267 268 269 269 269 270 271 273 274 276 277 278 278 279 279 279 280 280 281 281 282 282 282 282 281 281 280 279 277 276 275
265 265 265 265 265 265 266 266 267 267 267 267 267 267 267 268 269 269 271 272 273 275 276 277 277 278 278 279 279 280 280 280 281 281 282 282 281 281 279 277 276 275 274
Wind_Speed
29 30 32 33 36 34 36 38 39 39 34 41 37 39 42 42 39 37 34 36 36 34 37 40 38 43 31 23 25 27 30 18 4 5 18 17 32 30 27 25 25 22 21
27 27 30 32 35 36 34 38 37 33 33 37 41 40 40 40 39 38 36 33 32 31 32 36 37 40 38 29 26 31 19 12 12 7 12 17 25 31 28 27 23 21 22
28 28 27 31 33 35 35 38 38 34 35 34 39 40 38 39 39 38 38 37 35 35 34 33 35 39 40 35 27 22 15 15 14 17 8 12 17 28 28 27 24 23 23
29 22 18 30 35 37 34 30 37 37 36 35 32 35 35 37 38 42 41 42 42 41 41 40 45 38 38 38 29 21 14 12 11 15 10 11 15 22 27 27 25 25 23
26 19 7 18 21 23 24 30 38 36 37 35 36 32 34 28 34 40 39 40 36 33 36 40 43 51 37 34 33 26 22 18 21 25 16 11 12 21 25 26 21 26 20
23 20 16 22 26 24 27 27 34 31 37 39 39 41 35 33 29 31 39 37 35 37 37 35 39 43 41 38 38 33 27 25 21 17 14 12 21 22 27 28 22 14 7
30 31 21 21 26 34 35 34 29 28 36 36 32 28 25 20 25 27 29 29 28 27 27 31 34 37 44 40 37 37 37 36 31 28 26 23 25 30 32 27 27 21 10
26 32 29 38 40 36 36 34 28 36 35 36 36 31 26 19 18 19 19 20 20 20 22 27 30 33 34 36 33 34 34 36 35 32 33 30 23 24 28 31 29 21 12
39 42 44 37 35 32 35 31 27 42 34 37 35 38 33 24 18 18 21 20 19 14 13 14 17 21 24 26 27 29 29 31 31 31 30 27 26 20 23 24 24 23 5
36 36 37 35 30 34 30 34 33 37 33 37 36 41 31 32 23 20 17 20 21 19 13 10 8 9 16 23 25 27 23 26 29 30 29 26 25 23 19 21 24 24 10
35 39 36 37 32 35 33 34 29 31 31 34 33 37 38 32 25 24 20 21 18 18 15 11 8 5 8 16 21 23 24 23 22 24 23 21 18 19 19 19 19 25 20
30 32 33 33 34 31 35 35 36 36 33 30 32 32 30 31 30 26 24 20 17 19 17 15 12 8 9 14 15 13 15 13 20 21 20 19 19 19 19 18 17 17 15
25 26 26 29 30 35 37 33 31 31 27 24 24 21 20 24 27 25 24 20 17 17 15 15 13 12 12 13 10 10 13 14 20 21 20 19 19 20 20 18 15 14 10
25 27 27 29 29 32 31 31 29 25 22 20 17 17 18 21 23 20 21 17 15 15 14 14 11 10 10 10 11 10 10 13 18 19 19 19 19 21 21 20 20 20 21
22 21 22 23 24 22 27 27 25 26 23 20 20 21 18 18 18 13 14 16 15 13 12 11 10 9 8 8 9 10 10 11 13 15 18 19 21 22 22 21 22 25 17
18 20 23 19 19 19 18 17 22 22 22 22 22 19 16 15 16 12 12 12 12 12 12 10 8 6 5 5 8 10 10 11 13 15 16 19 22 23 23 22 23 20 21
21 19 19 22 20 19 19 16 12 12 14 18 16 18 16 13 12 12 12 10 11 11 11 8 6 4 4 4 6 10 12 13 13 14 16 19 21 22 25 22 20 21 19
16 17 16 15 15 15 15 14 14 14 13 14 15 16 16 14 14 13 10 10 8 9 9 7 5 4 3 3 5 8 11 13 14 15 17 19 22 23 21 21 21 21 21
11 11 11 11 12 12 11 11 11 11 11 12 14 13 16 15 13 15 13 11 8 7 5 6 5 4 3 3 4 6 8 12 14 15 17 19 22 22 21 22 23 24 24
7 8 8 7 7 7 8 8 7 8 9 11 12 12 16 12 13 13 13 11 10 7 6 5 5 4 4 3 4 7 9 12 13 14 16 19 22 23 23 25 26 24 20
5 6 7 5 5 5 4 4 4 4 5 5 5 6 10 7 7 7 8 9 8 8 7 4 3 3 2 2 3 5 8 11 13 15 18 21 23 23 25 26 26 24 25
4 4 5 4 4 4 4 4 3 3 3 3 2 3 5 4 4 4 4 4 5 5 5 4 3 2 1 2 3 5 8 12 14 16 19 22 24 25 26 27 27 27 26
4 4 5 5 4 4 4 4 4 3 3 3 3 3 3 2 2 2 2 3 3 4 3 2 2 2 2 2 4 7 9 13 16 19 22 23 24 26 28 29 30 28 27
5 5 5 5 5 4 3 3 3 4 4 5 5 6 5 4 3 3 3 3 2 3 3 2 2 3 4 4 5 7 10 13 16 18 21 25 25 27 29 29 28 28 28
7 7 7 6 6 6 6 6 5 5 5 5 6 6 7 7 6 5 5 4 3 2 3 2 2 3 4 5 6 7 10 12 16 19 22 25 28 30 30 29 28 27 26
9 9 9 8 9 9 8 8 7 7 7 6 7 7 7 7 8 7 6 5 4 3 1 1 1 2 2 4 6 6 8 13 16 21 23 26 30 30 28 28 26 26 24
Wind_Direction
270 262 253 243 242 244 227 227 223 231 204 189 182 174 175 177 174 169 172 174 176 174 175 173 175 176 172 175 185 200 207 206 158 151 181 185 187 198 194 192 199 199 201
283 270 254 238 233 240 230 225 226 199 184 185 174 172 169 168 167 165 164 170 166 169 169 168 176 176 182 181 175 181 182 172 153 120 153 168 188 190 189 189 194 197 203
301 278 250 230 227 232 236 219 212 168 167 171 167 166 163 163 162 162 164 166 169 169 171 169 175 178 178 178 169 165 153 132 125 160 142 154 167 185 178 188 192 195 203
314 302 256 220 220 222 227 215 179 161 160 162 162 153 156 161 166 174 184 184 188 189 188 193 193 196 191 191 188 180 168 147 137 146 126 157 161 176 183 182 187 198 200
332 337 319 162 164 182 169 159 149 153 154 154 151 158 162 167 183 173 174 171 174 174 183 195 203 209 209 201 186 180 178 155 148 158 160 163 157 167 186 193 188 196 198
357 3 31 83 111 117 101 102 117 139 141 148 151 151 159 174 178 178 173 167 175 180 183 194 206 207 210 215 217 215 206 189 178 168 165 167 192 189 187 190 170 156 193
16 21 27 79 88 80 80 88 83 95 110 119 125 140 152 153 169 182 172 160 166 176 181 192 201 209 210 213 220 225 228 226 227 210 196 202 198 200 194 180 182 181 176
17 23 34 47 56 60 71 71 84 86 85 90 97 108 111 123 152 165 160 150 160 175 188 196 201 202 207 211 210 211 220 222 222 221 224 221 227 223 212 201 191 177 170
15 21 26 31 49 59 60 57 64 82 74 80 77 83 86 89 109 127 135 139 140 148 172 189 205 210 207 207 202 203 207 209 214 218 216 220 223 223 218 200 182 172 152
12 22 24 31 46 58 59 56 63 69 73 74 71 71 74 75 81 86 105 124 124 129 142 161 168 210 210 206 206 197 191 206 203 208 212 217 211 214 214 215 200 179 152
13 28 23 30 36 47 54 58 59 69 70 73 71 67 62 62 70 78 83 94 103 107 111 113 134 164 196 203 205 206 207 207 198 195 191 187 187 194 199 206 211 212 188
20 25 26 26 38 46 51 48 48 51 54 57 61 57 53 57 56 64 71 73 84 95 97 104 111 131 154 178 193 201 210 207 194 182 177 171 172 177 181 188 189 195 200
30 30 28 32 37 43 46 47 47 49 53 52 57 57 47 45 51 56 61 67 74 81 86 91 101 105 121 145 155 166 180 177 181 171 170 179 181 177 169 167 168 172 172
29 30 29 33 37 41 50 52 53 51 54 57 62 68 61 51 42 48 53 64 66 75 78 81 88 102 109 123 131 154 165 172 178 171 165 177 175 169 172 174 157 149 138
32 32 34 33 36 46 53 50 54 53 57 55 54 51 46 43 38 44 50 52 56 63 70 72 75 84 104 123 149 165 166 167 167 174 174 172 169 170 168 168 163 155 147
30 25 25 31 35 39 48 64 60 63 60 61 59 57 51 48 41 46 48 60 58 53 65 62 65 74 90 139 163 175 181 177 177 178 178 175 165 162 158 165 162 157 137
42 34 25 28 27 30 33 34 38 56 65 62 62 55 52 47 42 42 45 56 63 61 69 62 65 76 105 134 175 182 170 187 191 182 182 175 168 163 156 152 145 139 131
42 41 42 36 34 32 28 27 28 24 20 23 41 42 44 42 41 37 46 61 69 62 57 57 64 70 83 133 155 158 166 172 178 176 173 167 163 159 154 152 147 140 135
52 42 41 37 38 39 39 32 29 28 26 21 25 29 38 41 40 45 54 61 54 51 55 58 59 64 79 114 142 163 170 169 169 166 170 168 165 159 155 151 145 147 148
42 47 49 47 41 42 40 42 39 33 27 23 23 21 15 34 37 35 38 44 45 46 41 39 47 65 81 107 136 154 159 162 164 168 169 167 163 159 150 146 150 145 143
22 12 28 33 37 43 51 56 53 49 44 38 25 17 6 23 20 28 34 37 38 34 34 43 49 45 76 100 146 169 171 168 167 167 166 163 161 152 155 157 149 145 155
354 355 2 9 11 15 12 20 29 40 43 44 20 0 3 32 15 18 28 31 30 37 30 20 37 80 112 166 182 181 184 175 172 169 164 162 161 157 154 147 152 159 159
327 326 329 330 337 340 352 343 344 341 337 337 334 344 1 349 338 341 330 346 9 15 15 18 356 309 278 236 215 197 195 191 188 183 176 167 161 155 156 155 161 157 156
286 286 286 287 291 290 286 287 291 299 295 299 303 300 303 306 289 282 299 298 318 358 2 6 331 288 274 257 239 218 207 207 202 192 185 175 164 159 162 160 160 158 156
271 269 267 262 261 264 266 272 270 269 267 266 269 275 278 281 293 288 277 282 280 302 353 335 336 305 259 242 237 229 212 203 201 191 184 177 170 166 163 161 159 158 156
265 264 261 257 255 251 250 252 254 254 254 256 258 261 263 264 263 270 271 269 267 254 311 337 325 321 276 228 218 213 201 193 194 191 183 177 169 164 163 159 158 156 154